CZ-11 R/B, 43872

Orbit data source: Space-Track

CZ-11 R/B, 43872 is space debris in SSO originally from a launch on Fri, 21 Dec 2018 UTC launched from the Jiuquan Satellite Launch Center, China (JSC). Debris objects in space refer to the collection of defunct objects orbiting the Earth. Examples of debris include non-operational satellites, rocket bodies, and fragments generated from explosions, collisions, or faulty payload assembly.

Loading next visibility...
Identifier
43872, 2018-108B
Orbit
SSO
Country
Flag of CNCN / PRC
Related business
Manufacturer
CALT
Mission
Spacecraft
Bus & Motor
CZ-11-4, Unknown motor
Mass
500 kg wet, 500 kg dry
Launch date (UTC)
2018-12-21 (8 years ago)
Launch vehicle
Unknown
Launch site
Jiuquan Satellite Launch Center, China (JSC)
Object type
Payload
Rocket body
Debris
Shape & HBR
Cyl, 0.8 m
Radar Cross Section
2.651 m², Large (>1 m²)

Expand to show TLE details & history
Last TLE update: 2 days ago

TLE from 2 days ago
0 CZ-11 R/B
1 43872U 18108B   26171.47909666  .00000155  00000-0  89802-4 0  9998
2 43872 100.3675 239.0559 0330229 271.8049  84.5324 14.01860125383368
Epoch: 2026-06-20T11:29Z
TLE epoch observation values (Epoch: 2026-06-20T11:29:53.951Z)
Latitude
-0.00006°
Longitude
157.88798°
Altitude
875.215 km
Speed
7.422 km/s
True Right ascension
15h 56m 13s
True Declination
0° 00' 00"
Sunlit
Object was in full shadow at epoch
Visualization orbit readout
Latitude
Unknown
Longitude
Unknown
Altitude
Unknown
Speed
Unknown
Apparent Right ascension
Unknown
Apparent Declination
Unknown
Sunlit
N/A
Visualization observer readout
Local Sidereal Time
21:35:25
Azimuth
Unknown
Elevation
Unknown
Doppler factor
Unknown
Orbital elements
Apogee altitude
1,124.463 km
Perigee altitude
644.788 km
Semi-major axis
7,262.762 km
Eccentricity
0.03302
Inclination
100.3675°
RAAN
239.0559°
Arg. of periapsis
271.8049°
True anomaly
88.31146°
Mean anomaly
84.5324°
Eccentric anomaly
86.42078°
Mean motion
3.50663 °/min
Orbital period
102.66 mins
BSTAR
0.000089802
Loading maneuver chart data...
Computing Atmospheric mass density...
Loading historical data...
Loading historical data...
Loading historical data...
Loading historical data...
Loading historical data...
Loading historical data...
Loading historical data...
Other satellites on launch #108 in the year 2018 (2018-12-21 UTC)

Documentation

Showing up to 5 results
|